Meteo Giornale » Osservazioni meteo Italia » Venezia-Tessera

ore: 00:50 - Osservazioni Meteo Venezia-Tessera
Lat. 45° 30' N Lon. 12° 20' E Alt. 2 metri s.l.m.

sereno Europe/Rome

22 °C

Sereno

Temp. 24 Ore

18 °C

27 °C

Nord

7.4 Km/h

Dew point 19 °C

Umidità 83 %

Visibilità  10 Km

Il sole sorge alle ore 06:13

Il sole tramonta alle ore 20:15

Data e Ora Cielo e Fenomeni T °C DP °C Um. % Pres. hPa Vis. km Vento km/h
Oggi h: 00:50 sereno Sereno 22 19 83 1015 10 N 7.4
Oggi h: 00:20 sereno Sereno 23 19 78 1015 10 N/NO 9.3
Ieri h: 23:50 sereno Sereno 24 20 78 1015 10 SO 9.3
Ieri h: 23:20 sereno Sereno 24 19 73 1015 10 S/SO 9.3
Ieri h: 22:50 sereno Sereno 24 19 73 1015 10 S/SO 11.1
Ieri h: 22:20 sereno Sereno 24 18 69 1015 10 S/SO 9.3
Ieri h: 21:50 sereno Sereno 24 18 69 1015 10 S 7.4
Ieri h: 21:20 sereno Sereno 24 18 69 1015 10 N 5.5
Ieri h: 20:50 sereno Sereno 25 18 65 1015 10 N 5.5
Ieri h: 20:20 sereno Sereno 24 18 69 1015 10 N 5.5
Ieri h: 19:50 sereno Sereno 25 18 65 1015 10 N 5.5
Ieri h: 19:20 sereno Sereno 25 18 65 1015 10 S/SE 7.4
Ieri h: 18:50 sereno Sereno 26 18 61 1015 10 S/SE 7.4
Ieri h: 18:20 sereno Sereno 26 17 57 1015 10 S/SE 9.3
Ieri h: 17:50 sereno Sereno 26 17 57 1015 10 S/SE 9.3
Ieri h: 17:20 sereno Sereno 26 16 54 1015 10 SE 9.3
Ieri h: 16:50 sereno Sereno 26 16 54 1015 10 SE 13
Ieri h: 16:20 sereno Sereno 26 16 54 1016 10 SE 14.8
Ieri h: 15:50 sereno Sereno 27 16 50 1016 10 SE 13
Ieri h: 15:20 sereno Sereno 27 17 54 1016 10 S/SE 11.1
Ieri h: 14:50 sereno Sereno 27 15 47 1016 10 SE 9.3
Ieri h: 14:20 sereno Sereno 26 16 54 1016 10 S/SE 9.3
Ieri h: 13:50 sereno Sereno 26 14 47 1016 10 SE 9.3
Ieri h: 13:20 sereno Sereno 26 15 50 1016 10 S/SE 7.4
Ieri h: 12:50 sereno Sereno 25 17 61 1017 10 SE 7.4
Ieri h: 12:20 sereno Sereno 25 17 61 1017 10 SE 9.3
Ieri h: 11:50 sereno Sereno 24 17 64 1017 10 SE 9.3
Ieri h: 11:20 sereno Sereno 25 17 61 1017 10 N 3.7
Ieri h: 10:50 sereno Sereno 24 16 60 1017 10 N 5.5
Ieri h: 10:20 sereno Sereno 24 16 60 1017 10 N 7.4
Ieri h: 09:20 sereno Sereno 22 16 68 1017 10 E/NE 7.4
Ieri h: 08:50 sereno Sereno 21 16 73 1017 10 E/NE 9.3
Ieri h: 08:20 sereno Sereno 20 15 72 1017 10 NE 9.3
Ieri h: 07:50 sereno Sereno 20 15 72 1017 10 NE 11.1
Ieri h: 07:20 sereno Sereno 19 15 77 1016 10 NE 7.4
Ieri h: 06:50 sereno Sereno 18 15 82 1016 10 NE 9.3
Ieri h: 06:20 sereno Sereno 18 15 82 1016 10 N/NE 11.1
Ieri h: 05:50 sereno Sereno 18 15 82 1016 10 NE 9.3
Ieri h: 05:20 sereno Sereno 18 15 82 1016 10 N 9.3
Ieri h: 04:50 sereno Sereno 18 16 88 1016 10 N 7.4
Ieri h: 04:20 sereno Sereno 18 15 82 1016 10 N/NE 7.4
Ieri h: 03:50 sereno Sereno 19 15 77 1016 10 N/NE 9.3
Ieri h: 03:20 sereno Sereno 19 15 77 1016 10 N 5.5
Ieri h: 02:50 sereno Sereno 19 16 82 1016 10 N 5.5
Ieri h: 02:20 sereno Sereno 20 16 77 1017 10 N 5.5
Ieri h: 01:50 sereno Sereno 20 15 72 1017 10 N 5.5